East Saint Louis, IL

1:46 PM CST on February 24, 2017 (GMT -0600)
Saint Louis Downtown

Weather History for KCPS - November, 2012

Change the Weather History Date:

Saturday, November 3, 2012

  Actual Average Record
Temperature  
Mean Temperature 45 °F -  
Max Temperature 52 °F 42 °F 80 °F (2003)
Min Temperature 37 °F 29 °F 19 °F (1951)
Degree Days  
Heating Degree Days 20    
Moisture  
Dew Point 36 °F    
Average Humidity 68    
Maximum Humidity 89    
Minimum Humidity 54    
Precipitation  
Precipitation 0.00 in - - ()
Sea Level Pressure  
Sea Level Pressure 30.09 in    
Wind  
Wind Speed 8 mph (NE)    
Max Wind Speed 12 mph    
Max Gust Speed -    
Visibility 10 miles    
Events      
Averages and records for this station are not official NWS values.
T = Trace of Precipitation, MM = Missing Value Source: NWS Daily Summary

Daily Weather History Graph

Daily Weather History Graph

Search for Another Location

Airport or City:

Trip Planner

Search our weather history database for the weather conditions in past years. The results will help you decide how hot, cold, wet, or windy it might be!

Date:

Astronomy

Nov. 03, 2012 Rise Set
Actual Time 7:29 AM CDT 5:57 PM CDT
Civil Twilight 7:02 AM CDT 6:25 PM CDT
Nautical Twilight 6:30 AM CDT 6:56 PM CDT
Astronomical Twilight 5:59 AM CDT 7:27 PM CDT
Moon 9:40 PM CDT (11/3) 11:33 AM CDT (11/3)
Length of Visible Light 11h 23m
Length of Day
10h 27m
Waning Gibbous, 80% of the Moon is Illuminated
Nov 3
Waning Gibbous
Nov 6
Last Quarter
Nov 13
New
Nov 20
First Quarter
Nov 28
Full

Hourly Weather History & Observations

Time (CDT) Temp. Windchill Dew Point Humidity Pressure Visibility Wind Dir Wind Speed Gust Speed Precip Events Conditions
12:53 AM 45.0 °F 41.8 °F 34.0 °F 65% 30.05 in 10.0 mi ESE 5.8 mph - N/A   Clear
1:53 AM 46.0 °F 42.5 °F 34.0 °F 63% 30.03 in 10.0 mi ESE 6.9 mph - N/A   Mostly Cloudy
2:53 AM 45.0 °F 40.1 °F 34.0 °F 65% 30.02 in 10.0 mi ESE 9.2 mph - N/A   Clear
3:53 AM 44.1 °F 40.1 °F 34.0 °F 68% 30.02 in 10.0 mi ESE 6.9 mph - N/A   Clear
4:53 AM 43.0 °F 38.2 °F 34.0 °F 71% 30.04 in 10.0 mi East 8.1 mph - N/A   Scattered Clouds
5:53 AM 43.0 °F 38.8 °F 34.0 °F 71% 30.05 in 10.0 mi East 6.9 mph - N/A   Partly Cloudy
6:53 AM 43.0 °F 37.7 °F 33.1 °F 68% 30.04 in 10.0 mi East 9.2 mph - N/A   Clear
7:53 AM 43.0 °F 38.2 °F 33.1 °F 68% 30.04 in 10.0 mi East 8.1 mph - N/A   Clear
8:53 AM 45.0 °F 40.1 °F 34.0 °F 65% 30.05 in 10.0 mi East 9.2 mph - N/A   Mostly Cloudy
9:53 AM 46.9 °F - 35.1 °F 63% 30.04 in 10.0 mi ESE 9.2 mph - N/A   Overcast
10:53 AM 50.0 °F - 35.1 °F 57% 30.05 in 10.0 mi East 6.9 mph - N/A   Overcast
11:53 AM 51.1 °F - 35.1 °F 54% 30.06 in 10.0 mi NE 9.2 mph - N/A   Overcast
12:53 PM 51.1 °F - 37.0 °F 59% 30.06 in 10.0 mi North 9.2 mph - N/A   Overcast
1:53 PM 50.0 °F - 37.0 °F 61% 30.07 in 10.0 mi North 10.4 mph - N/A   Overcast
2:53 PM 48.9 °F - 37.9 °F 66% 30.08 in 10.0 mi North 11.5 mph - N/A   Overcast
3:53 PM 50.0 °F - 37.0 °F 61% 30.10 in 10.0 mi North 8.1 mph - N/A   Overcast
4:53 PM 50.0 °F - 39.0 °F 66% 30.13 in 10.0 mi NNE 10.4 mph - N/A   Overcast
5:53 PM 48.0 °F - 37.9 °F 68% 30.14 in 10.0 mi North 11.5 mph - N/A   Overcast
6:53 PM 48.0 °F - 37.9 °F 68% 30.15 in 10.0 mi NNE 8.1 mph - N/A   Overcast
7:53 PM 46.0 °F 40.6 °F 37.0 °F 71% 30.17 in 10.0 mi North 11.5 mph - N/A   Mostly Cloudy
8:53 PM 44.1 °F 38.6 °F 37.0 °F 76% 30.17 in 10.0 mi NNE 10.4 mph - N/A   Clear
9:53 PM 41.0 °F 36.4 °F 37.0 °F 86% 30.19 in 8.0 mi NNE 6.9 mph - N/A   Clear
10:53 PM 39.0 °F 36.8 °F 36.0 °F 89% 30.20 in 6.0 mi NNE 3.5 mph - N/A   Clear
11:53 PM 37.9 °F 34.4 °F 35.1 °F 89% 30.21 in 7.0 mi North 4.6 mph - N/A   Clear